Location: Albany
(35.0170°S, 117.8920°E)
Time: 17:34:01
(UTC+08:00)

Explorer 11/Cluster Stage 4 - Pass Details

Date: 01 February 2021
Orbit: 467 x 1257 km, 28.8° (Epoch: 02 March)

Event Time Altitude Azimuth Distance (km) Brightness Sun altitude
Rises 05:24:33 0° 299° (WNW) 4,198 - -1.4°
Exits shadow 05:24:57 - 299° (WNW) 4,070 9.5 -1.4°
Reaches altitude 10° 05:27:42 10° 305° (NW) 3,212 9.1 -0.8°
Maximum altitude 05:35:17 43° 13° (NNE) 1,579 8.1 0.6°
Drops below altitude 10° 05:42:00 10° 81° (E) 2,851 10.7 1.9°
Sets 05:44:38 0° 88° (E) 3,691 11.6 2.4°
